Location: Berua Church
(35.0423°N, 88.5987°W)
Time: 01:05:54
(UTC+00:00)

STARLINK-60 - Pass Details

Date: 08 December 2019
Orbit: 411 x 419 km, 53.0° (Epoch: 27 January)

Event Time Altitude Azimuth Distance (km) Brightness Sun altitude
Rises 23:39:32 0° 238° (WSW) 2,382 8.7 -11.5°
Reaches altitude 10° 23:41:42 10° 245° (WSW) 1,517 7.4 -11.9°
Maximum altitude 23:44:59 45° 319° (NW) 594 3.9 -12.6°
Enters shadow 23:47:30 16° 29° (NNE) 1,224 5.0 -13.1°
